Location: Newark
(12.6500°N, 8.0000°W)
Time: 04:57:56
(UTC+00:00)

N. Korean satellite - Visible Passes

Search period start: 23 October 2019 00:00
Search period end: 02 November 2019 00:00
Orbit: 455 x 508 km, 97.2° (Epoch: 22 October)

Date Brightness Start Highest point End Pass type
(mag) Time Alt. Az. Time Alt. Az. Time Alt. Az.
23 Oct 10.5 05:17:50 10° E 05:19:01 11° E 05:20:11 10° ESE visible
23 Oct 10.1 18:44:13 10° SW 18:46:11 15° W 18:48:08 10° WNW visible
25 Oct 7.6 05:58:07 10° NNE 06:01:45 54° E 06:05:22 10° S visible
26 Oct 9.6 05:33:36 10° NE 05:36:28 21° E 05:39:19 10° SSE visible
27 Oct 9.8 18:35:46 10° SSW 18:38:17 19° W 18:40:48 10° NW visible
29 Oct 8.3 05:50:23 10° NNE 05:53:53 40° E 05:57:23 10° S visible
30 Oct 10.0 05:26:12 10° ENE 05:28:35 16° E 05:30:57 10° SE visible
31 Oct 9.2 18:27:27 10° SSW 18:30:20 26° W 18:33:14 10° NW visible
